Temperature
26 26 25 25 28 29 28 29 29 29 29 28 28 27 26 25 24 22 21 21 20 19 19 19 19 19 18 18 18 18 18 18 18 18 18 18 18 18 18 18 18 18 18 18 17 17 18 18 18
26 25 25 27 29 28 28 29 28 29 29 28 27 27 26 25 23 22 21 21 20 19 19 19 19 19 18 18 18 18 18 18 18 18 18 18 18 18 18 18 18 18 18 18 18 18 18 18 18
26 26 28 30 30 28 28 29 29 29 29 28 27 26 25 24 23 22 21 21 20 19 19 19 19 19 18 18 18 18 18 18 18 18 18 18 18 18 18 18 18 18 18 18 18 18 18 18 18
26 28 30 31 29 30 30 29 29 29 29 28 27 26 24 24 23 22 22 21 20 19 19 19 19 19 19 18 18 18 18 18 18 18 18 18 18 18 18 18 18 18 18 18 18 18 18 18 18
27 30 31 30 30 30 31 30 30 29 29 27 26 25 24 23 22 22 22 21 21 20 19 20 19 19 19 18 18 18 18 18 18 18 18 18 18 18 18 18 18 18 18 18 18 18 18 18 18
30 33 31 30 30 31 31 30 29 29 28 27 26 25 23 23 22 22 22 21 21 20 19 20 19 19 19 19 18 18 18 18 18 18 18 18 18 18 18 18 18 18 18 18 18 18 18 18 18
32 33 31 30 30 30 31 30 29 29 28 28 27 25 24 23 23 22 22 22 21 20 20 19 19 19 19 19 19 18 18 18 18 18 18 18 18 18 18 18 18 18 18 18 18 18 18 18 18
33 34 32 31 30 30 30 30 29 29 28 27 27 26 24 23 23 22 22 22 21 21 20 19 19 19 19 19 19 19 19 18 18 18 18 18 18 18 18 18 18 18 18 18 18 18 18 18 18
34 33 32 31 31 30 30 30 29 28 28 27 27 25 24 23 23 22 22 22 21 21 20 20 19 19 19 19 19 19 18 18 18 18 18 18 18 18 18 18 18 18 18 18 18 18 18 18 18
34 32 32 33 32 31 31 30 29 29 28 27 25 25 24 23 23 23 22 22 21 21 20 20 20 19 19 19 19 18 18 18 18 18 18 18 18 18 18 18 18 18 18 18 18 18 18 18 18
34 33 33 33 32 32 31 31 30 29 28 27 25 25 24 24 23 23 22 22 21 21 20 20 19 19 19 19 19 18 18 18 18 18 18 18 18 18 18 18 18 18 18 18 18 18 18 18 18
34 34 33 33 32 32 32 31 30 29 28 27 26 25 25 24 23 23 22 22 21 20 20 20 19 19 19 19 19 19 18 18 18 18 18 18 18 18 18 18 18 18 18 18 18 18 18 18 18
34 34 33 33 32 32 32 31 30 29 28 27 26 25 25 24 23 23 22 21 21 20 20 19 19 19 19 19 19 19 19 18 18 18 18 18 18 18 18 18 18 18 18 18 18 18 18 18 18
35 34 33 33 33 32 31 31 30 29 28 27 26 26 25 24 24 23 22 21 21 20 20 19 19 19 19 19 19 19 19 18 18 18 18 18 18 18 18 18 18 18 18 18 18 18 18 18 18
34 33 32 33 33 32 31 31 30 29 28 27 27 26 25 25 24 23 22 21 21 20 20 19 19 19 19 18 18 18 18 18 18 18 18 18 18 18 18 18 18 18 18 18 18 18 18 18 18
34 31 30 32 33 32 31 29 30 29 28 28 27 26 25 25 24 23 22 21 21 20 20 19 19 19 19 18 18 18 18 18 18 18 18 18 18 18 18 18 18 18 18 18 18 18 18 18 18
32 31 31 31 33 33 32 30 31 30 29 28 28 27 26 25 24 23 22 21 21 20 20 19 19 19 19 18 18 18 18 18 18 18 18 18 18 18 18 18 18 18 18 18 18 18 18 18 18
31 32 32 32 33 33 32 31 31 31 30 29 29 28 27 25 25 24 23 22 21 20 20 20 19 19 19 18 18 18 18 18 18 18 18 18 18 18 18 18 18 18 18 18 18 18 18 18 18
33 33 33 33 34 34 32 31 31 31 31 30 29 28 27 26 25 24 23 22 21 20 20 19 19 19 19 19 18 18 18 18 18 18 18 18 18 18 18 18 18 18 18 18 18 18 18 18 18
34 33 33 33 35 34 32 31 31 31 32 31 30 29 28 26 25 24 23 22 21 20 20 20 19 19 19 19 19 19 18 18 18 18 18 18 18 18 18 18 18 18 18 18 18 18 18 18 18
34 34 33 33 34 34 32 30 30 31 32 31 31 30 29 27 26 24 23 23 22 21 20 20 20 20 19 19 19 19 19 18 18 18 18 18 18 18 18 18 18 18 18 18 18 18 18 18 18
33 35 35 34 33 32 32 28 28 30 31 31 31 30 29 28 26 25 24 23 22 21 21 21 20 20 19 19 19 19 19 19 19 18 18 18 18 18 18 18 18 18 17 17 17 17 18 18 18
34 35 35 34 33 32 31 30 28 30 30 31 31 30 30 28 27 26 25 24 23 22 21 21 20 20 20 20 19 19 19 19 19 18 18 18 18 18 18 18 18 18 18 18 17 17 17 17 17
35 35 34 34 33 31 32 30 29 29 30 31 31 31 30 29 28 26 25 24 23 22 22 21 21 21 20 20 20 19 19 19 19 19 18 18 18 18 18 18 18 18 17 17 17 17 17 17 17
35 33 31 30 30 29 31 31 30 30 32 32 32 31 30 29 28 26 25 24 24 23 22 22 21 21 21 20 20 20 20 19 19 19 18 18 18 18 18 18 18 18 18 17 17 17 17 17 17
34 33 31 29 28 28 28 29 30 32 33 33 32 31 30 29 28 27 26 25 24 23 23 22 21 21 21 21 20 20 20 19 19 19 19 18 18 18 18 18 18 18 17 17 17 17 17 17 17
34 33 34 31 30 29 27 29 31 32 32 33 32 31 31 29 28 27 26 25 24 24 23 22 22 21 21 21 20 20 20 19 19 19 19 18 18 18 18 18 18 17 17 17 17 17 17 17 17
34 34 33 32 29 29 29 29 29 30 31 32 32 31 30 30 28 28 27 26 25 24 23 23 22 22 21 21 20 20 20 20 19 19 19 19 18 18 18 18 18 17 17 17 17 17 17 17 17
34 33 33 32 31 30 29 28 29 29 30 31 32 31 30 30 29 28 27 26 25 24 23 23 22 22 21 21 21 20 20 19 19 19 19 19 19 18 18 18 18 17 17 17 17 17 17 16 16
34 34 33 31 30 31 30 28 31 30 31 31 31 30 30 29 29 28 27 26 25 24 24 23 22 21 21 21 21 20 20 19 19 19 19 19 18 18 18 18 17 17 17 17 17 16 16 16 16
Wind_Speed
9 10 9 6 2 7 15 15 14 14 15 15 15 15 18 16 12 11 9 13 15 15 15 14 14 14 13 13 13 13 13 14 14 14 15 15 16 16 16 17 17 17 16 16 16 15 15 16 16
9 11 8 4 4 11 14 14 14 13 13 14 16 18 19 18 16 12 12 12 13 15 15 14 13 13 13 13 13 14 14 14 14 14 14 15 16 16 16 16 16 16 16 15 15 15 15 15 14
10 14 6 3 12 13 13 12 12 12 12 13 16 17 15 14 14 12 12 13 14 15 16 14 13 13 13 13 13 14 14 14 14 14 14 15 15 15 15 15 16 15 15 15 15 15 14 13 13
7 6 1 10 16 16 14 12 11 12 12 13 14 13 14 14 14 14 13 13 14 15 16 14 13 12 12 12 13 13 14 14 14 14 14 15 14 14 15 15 15 15 15 14 14 14 13 12 11
9 3 7 14 16 15 13 13 12 12 14 16 17 16 15 15 15 14 12 12 13 14 16 14 13 13 12 12 12 13 13 13 14 14 13 13 13 14 14 14 14 14 14 14 13 13 12 11 9
5 1 9 13 15 15 13 13 13 13 15 16 17 16 13 12 12 11 11 11 12 14 15 15 13 13 12 12 12 12 12 13 13 13 13 13 13 13 13 13 14 13 13 13 12 11 10 9 7
1 5 12 14 13 14 13 13 13 12 12 12 14 15 12 12 11 11 11 11 11 12 14 13 13 12 12 12 11 11 11 11 11 11 12 12 12 12 12 12 13 12 12 12 11 10 10 8 5
2 5 12 13 13 14 12 12 13 13 12 10 10 11 12 12 11 12 10 9 10 10 11 11 12 13 12 12 11 11 10 10 9 9 10 11 11 11 12 12 11 11 10 10 10 9 9 7 5
4 7 12 13 13 12 11 13 14 12 12 12 14 16 14 13 12 11 10 9 8 8 7 8 10 9 10 12 12 10 9 8 8 8 9 9 9 10 10 11 10 10 9 9 8 8 8 7 6
8 11 15 13 14 13 11 12 12 11 12 15 16 15 14 12 10 10 9 9 8 7 7 7 8 6 7 8 9 8 8 8 6 6 7 7 6 7 10 11 10 9 9 8 8 8 8 7 6
12 13 13 14 14 13 11 11 12 11 12 14 14 14 13 12 10 9 8 9 8 6 6 7 7 5 5 4 5 4 5 6 5 4 4 4 6 7 8 8 9 8 8 7 8 8 7 5 3
12 11 12 13 12 12 11 12 12 12 13 15 14 13 12 11 10 9 8 9 8 6 6 7 7 5 4 4 3 3 3 3 4 4 3 3 1 2 4 4 5 6 5 5 6 5 4 4 4
10 10 11 11 11 11 11 12 13 14 16 15 14 12 11 11 10 9 9 9 7 6 6 7 6 5 3 2 1 2 2 2 5 5 3 3 1 1 2 1 2 3 4 4 2 2 2 2 2
8 10 10 10 10 11 11 11 13 14 14 14 13 11 11 11 10 9 9 8 7 6 6 6 6 6 3 2 0 1 2 3 3 4 3 2 2 2 1 1 0 0 2 2 3 2 2 1 2
6 9 7 8 9 9 9 9 11 14 13 13 12 11 11 10 10 9 8 7 7 7 6 5 5 6 4 3 1 1 1 3 3 3 4 2 2 2 1 1 1 1 2 2 2 2 2 2 2
4 6 5 5 5 8 5 6 12 14 13 12 11 11 11 10 10 9 9 7 7 6 6 4 4 6 4 3 1 0 1 2 2 3 4 3 3 2 0 1 1 1 1 2 1 1 1 1 1
6 6 7 6 5 7 5 8 12 13 12 11 11 11 12 11 10 9 10 8 7 7 5 4 4 4 4 4 3 1 1 2 1 2 3 4 3 2 1 1 1 1 1 1 1 2 1 1 1
5 3 6 7 7 7 7 10 12 13 13 12 11 12 12 11 11 10 10 10 8 7 6 5 4 4 3 3 2 2 2 2 2 2 2 3 3 3 1 1 2 1 1 1 1 0 1 1 2
4 5 2 5 7 6 7 10 11 11 11 12 11 12 12 11 12 11 10 10 9 8 7 5 4 4 3 2 2 2 2 2 2 2 3 3 2 2 1 0 2 1 1 1 1 1 1 2 2
7 4 2 4 5 3 5 4 7 10 9 10 11 12 13 13 12 12 11 10 10 8 7 6 4 4 3 3 2 2 2 2 3 2 3 3 2 2 2 1 1 1 1 1 1 2 1 2 2
8 5 4 3 3 4 5 4 4 9 9 10 12 13 14 15 14 13 12 10 10 9 8 6 5 5 4 4 3 2 2 1 1 2 2 2 2 2 1 2 1 1 1 1 2 1 2 2 3
9 5 4 4 5 3 3 3 6 10 11 10 10 12 14 15 15 14 13 11 11 10 9 7 6 5 4 3 2 3 3 2 2 2 2 3 2 1 1 1 1 1 1 1 1 1 2 2 3
7 7 7 7 7 6 7 3 4 8 10 10 10 11 13 15 15 14 14 12 11 11 10 9 7 5 4 3 2 2 2 2 2 3 3 2 2 2 1 2 1 1 1 1 1 1 1 1 2
7 7 8 9 8 9 7 4 5 7 10 11 11 12 13 14 14 13 13 12 11 11 11 10 9 6 5 4 3 3 2 1 2 2 2 2 2 2 2 2 1 0 0 0 1 1 1 1 2
10 10 7 7 6 6 7 3 5 7 9 13 14 12 14 15 15 14 13 13 12 12 11 10 10 8 6 6 4 4 3 3 2 2 2 1 2 2 2 2 1 0 1 0 1 1 1 2 2
12 12 9 7 5 5 5 4 3 7 7 10 14 14 15 15 14 14 13 12 12 12 11 11 11 9 8 6 4 3 3 3 2 2 1 2 1 2 2 2 1 0 1 1 0 1 2 1 1
13 12 12 10 9 6 3 4 4 6 8 10 12 12 14 14 14 14 14 13 12 12 11 11 11 9 8 8 6 5 4 2 2 2 2 1 1 2 2 2 2 1 0 1 1 0 1 1 1
14 11 8 7 6 8 6 4 1 5 7 10 12 12 13 13 13 13 14 14 12 11 10 9 10 9 8 7 7 7 6 4 3 2 2 2 2 2 1 1 1 1 1 1 1 0 1 1 1
14 14 10 8 8 7 4 1 2 5 5 6 10 11 11 13 13 13 13 13 12 12 12 10 9 9 8 6 5 5 6 5 4 3 2 2 1 1 1 1 1 1 1 1 1 0 0 1 1
15 15 13 10 8 8 6 3 4 5 6 8 10 11 11 12 12 13 13 12 12 12 12 11 10 9 8 7 6 6 5 5 4 4 3 2 2 2 1 1 1 1 2 1 1 0 1 1 1
Wind_Direction
206 222 223 244 232 73 67 66 65 66 66 62 61 66 62 59 72 91 104 94 100 103 100 89 80 78 75 75 74 74 75 79 80 82 86 89 92 95 97 97 98 99 100 101 104 109 110 110 109
233 231 231 244 74 73 69 67 67 68 74 76 72 72 72 71 84 99 101 99 98 99 96 89 86 82 79 77 78 77 77 82 85 87 89 91 93 95 98 100 100 101 103 104 105 107 111 112 113
251 256 257 91 69 73 77 75 76 77 78 83 77 66 66 81 87 99 108 107 98 96 97 94 89 85 82 81 81 81 82 82 86 90 91 91 94 96 98 100 101 102 105 106 107 108 111 113 115
255 243 183 73 72 75 81 89 87 86 81 81 83 78 70 77 94 105 112 110 110 110 103 100 95 90 87 85 84 84 85 86 87 91 91 92 94 98 99 101 102 104 106 107 107 110 112 114 118
247 243 85 77 78 79 81 85 86 86 83 83 86 90 87 88 100 107 110 113 113 109 108 108 103 97 93 90 88 88 89 90 89 92 95 95 97 97 99 103 105 106 106 105 105 109 112 115 118
261 103 85 80 82 82 84 85 84 85 92 97 101 101 96 104 109 112 114 112 110 114 113 115 114 107 100 96 94 94 94 94 95 97 99 100 101 102 104 106 107 108 109 109 110 113 117 120 124
275 70 88 92 87 84 82 86 88 86 87 96 108 106 112 116 116 112 106 105 109 110 119 130 128 120 111 105 103 101 101 102 103 105 107 110 110 109 108 108 110 112 116 118 119 119 122 126 135
41 77 88 92 92 89 85 85 88 89 82 93 110 110 121 121 120 116 112 106 105 111 117 131 130 134 133 123 119 118 115 117 118 120 123 125 124 120 121 117 117 119 121 125 127 129 133 141 157
59 73 78 85 94 101 104 98 91 90 89 78 82 102 117 125 122 121 116 107 97 97 105 113 120 130 133 130 133 139 136 137 141 147 153 153 148 135 133 121 126 130 133 137 141 149 154 160 180
75 74 78 89 99 105 106 108 112 106 98 93 95 106 121 126 126 123 119 115 106 106 111 102 97 103 111 113 132 145 143 148 169 153 162 166 139 132 123 133 140 145 150 156 165 171 176 189 189
82 85 91 94 101 108 111 111 115 112 111 115 119 124 127 129 124 119 116 114 114 117 109 109 102 97 94 103 128 127 123 140 148 136 133 136 143 143 137 152 156 166 171 177 170 184 198 197 188
90 92 99 102 106 109 104 98 97 100 109 119 124 129 129 128 125 122 118 112 114 113 108 100 103 91 71 69 96 126 129 136 125 127 137 120 121 131 139 153 166 174 173 173 169 179 178 173 170
107 108 109 111 109 103 99 99 99 102 112 121 129 131 129 128 125 120 117 113 114 112 110 101 102 97 91 67 341 106 99 106 114 117 105 116 124 116 114 114 152 178 167 161 157 144 139 128 132
122 118 118 122 120 118 112 112 111 114 123 130 133 134 134 128 126 122 120 121 124 122 117 115 121 121 123 124 333 52 108 118 107 113 110 94 105 93 104 138 165 100 129 133 146 146 144 134 112
140 127 135 146 138 124 121 120 119 128 136 140 143 145 139 135 130 129 127 130 130 129 121 123 139 134 143 149 200 151 130 132 124 121 121 105 94 90 114 155 174 159 137 113 101 116 128 158 169
189 163 172 159 146 139 148 130 133 144 149 150 152 151 148 145 143 138 134 134 129 122 120 133 129 126 135 140 173 41 90 101 114 133 142 147 129 121 126 191 156 144 169 130 149 182 143 153 156
232 202 163 165 173 149 153 148 150 160 157 157 161 157 154 154 153 148 146 144 132 122 122 126 108 119 138 149 158 167 121 99 105 119 126 140 146 152 191 169 119 172 176 158 213 140 163 184 181
250 221 162 163 162 153 146 145 157 168 162 165 167 161 157 158 159 153 151 146 139 135 135 135 132 126 148 146 156 156 154 144 139 128 111 120 151 168 202 160 150 195 202 197 166 126 219 193 207
253 262 183 152 148 160 150 149 163 171 174 167 166 164 161 158 155 152 154 151 148 143 141 142 145 140 147 148 163 169 171 175 162 151 134 135 157 155 169 315 160 207 217 203 202 199 217 221 197
240 248 215 168 149 180 135 137 169 179 185 171 166 166 162 157 154 155 157 155 153 148 147 149 151 151 154 162 176 176 172 183 158 127 119 143 164 188 186 190 234 217 197 205 228 222 230 247 212
253 233 227 221 199 199 171 163 207 191 183 175 172 170 164 161 159 159 163 161 158 153 155 157 153 153 162 169 176 177 148 140 101 127 135 156 168 192 192 167 198 255 199 202 214 234 241 243 253
264 262 251 252 256 254 230 164 211 203 181 181 177 170 164 162 159 161 164 164 163 157 155 147 146 147 152 164 178 174 160 161 161 155 147 144 144 171 156 155 167 238 234 221 248 219 258 251 266
257 269 265 267 262 252 228 186 209 209 181 176 171 175 166 161 160 163 165 164 163 160 157 152 146 147 151 164 168 176 164 166 154 140 136 144 146 147 132 132 152 215 228 229 270 295 280 270 272
253 254 261 268 271 266 257 220 172 186 188 172 174 181 164 159 158 160 163 159 162 161 158 156 150 155 158 168 172 169 181 171 129 134 140 169 159 146 126 126 132 172 238 253 267 271 267 262 266
236 246 253 259 261 270 305 286 153 179 184 165 164 168 160 156 156 161 167 160 162 162 160 157 154 161 168 173 177 169 183 175 162 174 167 174 138 129 121 123 134 190 218 205 289 259 269 268 272
233 245 251 261 276 292 327 299 161 146 139 147 152 157 156 156 158 162 160 160 165 164 160 158 158 164 170 173 171 165 170 183 182 181 173 142 136 121 129 133 146 150 305 299 286 287 282 268 273
241 240 254 259 253 258 229 216 173 137 141 144 142 147 155 157 158 161 163 166 167 164 161 161 159 165 171 173 167 162 164 167 161 149 169 150 122 138 132 138 147 155 164 297 316 339 326 340 302
244 252 263 263 276 276 224 199 161 147 172 157 147 151 153 158 165 168 166 167 165 162 157 157 159 163 169 171 173 168 169 169 172 157 126 116 110 94 113 116 132 144 149 97 71 45 343 18 4
226 240 251 271 275 277 281 295 131 182 183 169 151 150 156 158 161 164 163 162 160 160 160 160 160 163 165 167 164 157 159 166 164 159 153 145 134 135 139 143 127 105 75 66 93 145 31 52 39
241 241 239 244 261 276 279 254 219 194 191 164 146 144 156 155 158 159 159 157 161 165 165 163 163 165 166 166 159 155 155 158 162 153 145 147 146 144 134 148 130 129 102 77 50 35 67 57 45
Height
1482 1482 1482 1485 1483 1485 1491 1489 1487 1488 1490 1493 1494 1495 1499 1502 1508 1521 1523 1522 1522 1522 1521 1521 1521 1521 1521 1521 1520 1520 1519 1519 1519 1519 1519 1520 1521 1522 1524 1524 1525 1527 1528 1529 1530 1532 1534 1535 1537
1482 1483 1485 1483 1484 1498 1499 1491 1492 1492 1494 1496 1497 1500 1503 1508 1513 1519 1522 1524 1524 1524 1523 1523 1523 1523 1523 1523 1523 1522 1522 1522 1522 1522 1523 1523 1524 1526 1526 1527 1528 1530 1531 1532 1534 1535 1536 1538 1540
1482 1483 1484 1477 1485 1496 1500 1493 1493 1494 1496 1498 1501 1505 1509 1514 1518 1521 1524 1525 1525 1525 1525 1525 1525 1525 1525 1525 1525 1525 1525 1525 1525 1525 1526 1527 1528 1528 1530 1531 1532 1533 1534 1535 1536 1537 1539 1541 1542
1484 1483 1480 1480 1491 1489 1491 1492 1494 1496 1498 1500 1503 1509 1515 1518 1521 1523 1525 1526 1527 1527 1527 1527 1527 1527 1527 1527 1528 1528 1528 1528 1528 1529 1529 1530 1531 1532 1533 1534 1535 1536 1537 1538 1539 1540 1541 1543 1545
1485 1481 1480 1487 1491 1489 1490 1492 1495 1497 1500 1503 1508 1514 1520 1523 1524 1526 1527 1528 1529 1529 1529 1529 1529 1529 1529 1529 1530 1530 1530 1531 1531 1532 1532 1533 1534 1534 1536 1537 1538 1539 1539 1540 1541 1542 1544 1545 1547
1482 1476 1486 1496 1493 1490 1492 1495 1498 1500 1504 1507 1511 1516 1522 1526 1526 1528 1529 1529 1530 1531 1530 1531 1531 1531 1531 1532 1532 1532 1533 1534 1534 1534 1535 1535 1536 1537 1538 1539 1540 1541 1542 1543 1544 1545 1546 1548 1549
1480 1478 1485 1492 1495 1495 1495 1497 1500 1503 1505 1508 1511 1517 1523 1526 1528 1529 1530 1531 1532 1533 1532 1532 1533 1533 1534 1534 1534 1535 1535 1536 1537 1537 1537 1538 1539 1540 1541 1542 1543 1544 1544 1545 1546 1547 1548 1549 1551
1476 1476 1483 1489 1495 1499 1498 1499 1502 1505 1508 1511 1512 1517 1523 1527 1529 1530 1532 1533 1534 1535 1535 1535 1536 1536 1536 1536 1537 1537 1537 1538 1539 1540 1540 1541 1542 1542 1543 1544 1545 1546 1547 1548 1548 1549 1550 1552 1553
1477 1481 1489 1491 1495 1498 1498 1501 1505 1508 1510 1512 1514 1518 1524 1527 1530 1531 1533 1534 1536 1536 1537 1538 1538 1538 1539 1539 1539 1539 1540 1540 1541 1542 1543 1543 1544 1545 1546 1547 1547 1548 1549 1550 1550 1551 1552 1554 1555
1477 1486 1489 1487 1490 1495 1498 1501 1504 1508 1512 1516 1519 1523 1526 1528 1530 1532 1534 1535 1537 1538 1538 1539 1540 1540 1541 1542 1541 1541 1542 1542 1543 1544 1545 1545 1547 1548 1548 1549 1549 1550 1551 1551 1552 1553 1554 1555 1556
1479 1485 1485 1488 1491 1495 1498 1500 1503 1507 1512 1517 1521 1524 1527 1529 1531 1533 1534 1536 1537 1538 1539 1540 1540 1541 1542 1542 1543 1543 1544 1544 1545 1546 1546 1547 1548 1549 1550 1550 1551 1551 1552 1553 1554 1554 1555 1556 1557
1481 1484 1486 1490 1493 1495 1497 1500 1504 1508 1513 1518 1522 1525 1527 1530 1532 1533 1535 1537 1538 1539 1540 1541 1541 1541 1542 1543 1543 1544 1545 1545 1546 1546 1547 1548 1549 1550 1551 1551 1552 1553 1553 1554 1555 1555 1556 1557 1558
1482 1485 1488 1491 1493 1496 1499 1502 1506 1511 1515 1519 1523 1526 1528 1530 1532 1534 1536 1537 1538 1539 1540 1541 1541 1541 1542 1542 1543 1544 1545 1546 1547 1547 1548 1548 1549 1550 1551 1552 1553 1554 1554 1555 1555 1556 1557 1558 1559
1483 1486 1489 1491 1494 1496 1500 1503 1507 1513 1517 1520 1523 1526 1528 1530 1533 1534 1536 1538 1539 1539 1540 1541 1541 1541 1542 1542 1543 1544 1545 1546 1547 1547 1548 1548 1549 1550 1552 1552 1553 1554 1555 1556 1556 1556 1557 1558 1559
1484 1488 1492 1491 1492 1495 1499 1505 1507 1512 1516 1519 1522 1525 1528 1531 1533 1535 1536 1538 1539 1539 1540 1541 1541 1541 1542 1543 1543 1545 1545 1546 1546 1547 1547 1548 1549 1550 1551 1552 1553 1554 1555 1555 1556 1557 1557 1558 1559
1485 1493 1502 1492 1490 1493 1501 1513 1507 1511 1514 1518 1521 1524 1527 1530 1532 1535 1536 1537 1538 1539 1540 1541 1542 1541 1542 1543 1543 1544 1545 1546 1546 1547 1547 1548 1549 1550 1550 1552 1552 1553 1554 1555 1556 1556 1557 1557 1558
1493 1499 1501 1496 1488 1489 1497 1507 1505 1509 1512 1515 1518 1521 1525 1529 1532 1534 1535 1537 1538 1539 1539 1540 1541 1541 1542 1542 1543 1544 1545 1545 1546 1547 1547 1548 1548 1549 1550 1551 1551 1552 1554 1554 1555 1556 1556 1556 1557
1498 1494 1494 1493 1486 1487 1494 1500 1501 1505 1507 1512 1515 1519 1523 1526 1530 1532 1535 1536 1537 1538 1539 1540 1541 1541 1541 1542 1543 1544 1545 1545 1546 1547 1547 1547 1548 1549 1549 1550 1551 1552 1552 1553 1554 1554 1555 1556 1556
1485 1487 1489 1486 1480 1485 1492 1497 1498 1500 1503 1507 1511 1515 1520 1524 1528 1531 1533 1535 1537 1538 1538 1539 1540 1540 1541 1542 1543 1543 1544 1545 1546 1546 1547 1547 1547 1548 1549 1549 1550 1551 1551 1552 1553 1553 1554 1554 1555
1482 1487 1488 1484 1479 1484 1491 1496 1495 1498 1500 1503 1507 1512 1516 1521 1526 1529 1532 1534 1536 1537 1538 1539 1539 1540 1540 1541 1542 1543 1544 1545 1545 1546 1546 1546 1547 1547 1548 1548 1549 1550 1550 1551 1552 1552 1553 1553 1554
1481 1484 1486 1485 1480 1482 1490 1502 1499 1496 1497 1501 1504 1508 1513 1517 1522 1526 1530 1533 1535 1536 1537 1538 1538 1539 1540 1541 1542 1544 1544 1545 1545 1545 1546 1546 1546 1547 1547 1548 1548 1549 1549 1550 1550 1551 1551 1551 1553
1485 1474 1476 1480 1487 1494 1492 1517 1506 1496 1495 1497 1500 1504 1508 1514 1519 1524 1528 1531 1533 1534 1536 1537 1538 1539 1539 1540 1542 1543 1543 1544 1545 1545 1545 1546 1546 1546 1547 1547 1547 1548 1548 1549 1549 1550 1550 1550 1551
1478 1472 1474 1478 1485 1494 1493 1507 1509 1494 1497 1495 1497 1502 1506 1511 1516 1521 1525 1528 1531 1533 1535 1536 1536 1537 1538 1540 1541 1542 1543 1544 1545 1545 1545 1546 1546 1546 1546 1546 1546 1547 1547 1547 1548 1548 1548 1549 1549
1471 1474 1476 1479 1486 1506 1493 1501 1510 1497 1493 1490 1495 1499 1503 1508 1513 1518 1523 1526 1529 1532 1534 1535 1535 1536 1538 1539 1540 1541 1542 1543 1544 1544 1545 1545 1545 1545 1546 1546 1545 1546 1546 1546 1546 1546 1547 1547 1547
1474 1485 1502 1510 1514 1517 1495 1497 1499 1485 1481 1484 1489 1495 1500 1506 1511 1517 1521 1524 1527 1530 1532 1534 1534 1536 1537 1538 1539 1541 1541 1542 1543 1543 1544 1544 1545 1545 1545 1545 1545 1545 1545 1545 1545 1545 1545 1545 1546
1475 1482 1505 1525 1529 1519 1507 1508 1491 1476 1480 1483 1487 1492 1498 1504 1509 1514 1518 1522 1525 1528 1530 1532 1533 1535 1536 1537 1539 1540 1541 1542 1543 1543 1544 1544 1544 1544 1544 1544 1544 1544 1544 1544 1544 1543 1544 1544 1544
1476 1479 1477 1494 1505 1517 1518 1503 1489 1479 1481 1483 1486 1491 1496 1502 1507 1512 1516 1520 1523 1526 1528 1530 1532 1534 1535 1537 1538 1539 1540 1541 1542 1543 1543 1543 1543 1543 1543 1543 1542 1542 1542 1542 1542 1542 1542 1542 1542
1469 1472 1480 1492 1513 1523 1513 1506 1502 1490 1487 1483 1485 1490 1496 1501 1506 1510 1514 1518 1521 1524 1526 1529 1531 1532 1534 1536 1537 1538 1539 1540 1541 1542 1542 1542 1542 1542 1542 1541 1541 1541 1541 1541 1541 1541 1540 1541 1540
1473 1476 1479 1485 1490 1509 1521 1516 1490 1489 1485 1485 1485 1489 1494 1499 1503 1507 1512 1516 1519 1522 1525 1527 1529 1531 1533 1535 1536 1537 1538 1539 1540 1540 1541 1541 1541 1540 1540 1540 1540 1540 1540 1540 1539 1539 1539 1539 1539
1466 1470 1476 1493 1496 1493 1505 1511 1482 1483 1480 1482 1484 1489 1493 1497 1501 1505 1509 1514 1518 1521 1523 1525 1528 1530 1531 1533 1535 1536 1537 1538 1539 1539 1540 1540 1539 1539 1539 1538 1538 1538 1538 1538 1538 1538 1538 1538 1538